Time,TemperatureF,DewpointF,PressureIn,WindDirection,WindDirectionDegrees,WindSpeedMPH,WindSpeedGustMPH,Humidity,HourlyPrecipIn,Conditions,Clouds,dailyrainin,SoftwareType,DateUTC
2013-05-04 00:02:00,47.3,21.7,30.21,ENE,58,0.0,0.0,36,0.00,,---,0.00,VWS V12.07,2013-05-04 04:02:00,
2013-05-04 00:08:00,47.1,21.6,30.21,ENE,58,0.0,0.0,36,0.00,,---,0.00,VWS V12.07,2013-05-04 04:08:00,
2013-05-04 00:14:00,47.1,21.6,30.21,ENE,58,0.0,0.0,36,0.00,,---,0.00,VWS V12.07,2013-05-04 04:14:00,
2013-05-04 00:20:00,47.1,21.6,30.21,ENE,57,0.0,0.0,36,0.00,,---,0.00,VWS V12.07,2013-05-04 04:20:00,
2013-05-04 00:26:00,46.9,21.4,30.21,ENE,57,0.0,0.0,36,0.00,,---,0.00,VWS V12.07,2013-05-04 04:26:00,
2013-05-04 00:32:00,46.9,21.4,30.21,ENE,57,0.0,0.0,36,0.00,,---,0.00,VWS V12.07,2013-05-04 04:32:00,
2013-05-04 00:37:00,46.8,21.2,30.21,ENE,57,0.0,0.0,36,0.00,,---,0.00,VWS V12.07,2013-05-04 04:37:00,
2013-05-04 00:43:00,46.6,21.1,30.21,ENE,57,0.0,0.0,36,0.00,,---,0.00,VWS V12.07,2013-05-04 04:43:00,
2013-05-04 00:49:00,46.6,21.7,30.21,ENE,58,0.0,0.0,37,0.00,,---,0.00,VWS V12.07,2013-05-04 04:49:00,
2013-05-04 00:55:00,46.6,21.7,30.21,ENE,58,0.0,0.0,37,0.00,,---,0.00,VWS V12.07,2013-05-04 04:55:00,
2013-05-04 01:01:00,46.6,21.7,30.21,ENE,57,0.0,0.0,37,0.00,,---,0.00,VWS V12.07,2013-05-04 05:01:00,
2013-05-04 01:07:00,46.4,21.6,30.21,ENE,57,0.0,0.0,37,0.00,,---,0.00,VWS V12.07,2013-05-04 05:07:00,
2013-05-04 01:13:00,46.2,21.4,30.21,ENE,57,0.0,0.0,37,0.00,,---,0.00,VWS V12.07,2013-05-04 05:13:00,
2013-05-04 01:19:00,46.2,22.0,30.21,ENE,57,0.0,0.0,38,0.00,,---,0.00,VWS V12.07,2013-05-04 05:19:00,
2013-05-04 01:25:00,46.0,21.9,30.21,ENE,57,0.0,0.0,38,0.00,,---,0.00,VWS V12.07,2013-05-04 05:25:00,
2013-05-04 01:30:00,45.9,21.7,30.21,ENE,58,0.0,0.0,38,0.00,,---,0.00,VWS V12.07,2013-05-04 05:30:00,
2013-05-04 01:36:00,45.9,21.7,30.21,ENE,57,0.0,0.0,38,0.00,,---,0.00,VWS V12.07,2013-05-04 05:36:00,
2013-05-04 01:42:00,45.7,21.5,30.18,ENE,58,0.0,0.0,38,0.00,,---,0.00,VWS V12.07,2013-05-04 05:42:00,
2013-05-04 01:48:00,45.7,21.5,30.18,ENE,57,0.0,0.0,38,0.00,,---,0.00,VWS V12.07,2013-05-04 05:48:00,
2013-05-04 01:54:00,45.5,21.4,30.18,ENE,57,0.0,0.0,38,0.00,,---,0.00,VWS V12.07,2013-05-04 05:54:00,
2013-05-04 02:00:00,45.1,21.1,30.18,ENE,58,0.0,0.0,38,0.00,,---,0.00,VWS V12.07,2013-05-04 06:00:00,
2013-05-04 02:06:00,45.1,21.1,30.18,ENE,57,0.0,0.0,38,0.00,,---,0.00,VWS V12.07,2013-05-04 06:06:00,
2013-05-04 02:12:00,45.1,21.1,30.18,ENE,58,0.0,0.0,38,0.00,,---,0.00,VWS V12.07,2013-05-04 06:12:00,
2013-05-04 02:18:00,45.1,21.1,30.18,ENE,57,0.0,0.0,38,0.00,,---,0.00,VWS V12.07,2013-05-04 06:18:00,
2013-05-04 02:24:00,45.1,21.7,30.18,ENE,57,0.0,0.0,39,0.00,,---,0.00,VWS V12.07,2013-05-04 06:24:00,
2013-05-04 02:30:00,44.8,21.4,30.18,ENE,57,0.0,0.0,39,0.00,,---,0.00,VWS V12.07,2013-05-04 06:30:00,
2013-05-04 02:36:00,44.6,21.2,30.18,ENE,58,0.0,0.0,39,0.00,,---,0.00,VWS V12.07,2013-05-04 06:36:00,
2013-05-04 02:42:00,44.6,21.2,30.18,ENE,58,0.0,0.0,39,0.00,,---,0.00,VWS V12.07,2013-05-04 06:42:00,
2013-05-04 02:48:00,44.6,21.2,30.18,ENE,57,0.0,0.0,39,0.00,,---,0.00,VWS V12.07,2013-05-04 06:48:00,
2013-05-04 02:54:00,44.6,21.2,30.18,ENE,57,0.0,0.0,39,0.00,,---,0.00,VWS V12.07,2013-05-04 06:54:00,
2013-05-04 03:00:00,44.4,21.0,30.18,ENE,57,0.0,0.0,39,0.00,,---,0.00,VWS V12.07,2013-05-04 07:00:00,
2013-05-04 03:06:00,44.1,21.3,30.18,ENE,57,0.0,0.0,40,0.00,,---,0.00,VWS V12.07,2013-05-04 07:06:00,
2013-05-04 03:14:00,44.2,21.5,30.18,ENE,57,0.0,0.0,40,0.00,,---,0.00,VWS V12.07,2013-05-04 07:14:00,
2013-05-04 03:20:00,44.2,21.5,30.18,ENE,58,0.0,0.0,40,0.00,,---,0.00,VWS V12.07,2013-05-04 07:20:00,
2013-05-04 03:27:00,44.1,21.3,30.18,ENE,57,0.0,0.0,40,0.00,,---,0.00,VWS V12.07,2013-05-04 07:27:00,
2013-05-04 03:33:00,44.1,21.3,30.18,ENE,58,0.0,0.0,40,0.00,,---,0.00,VWS V12.07,2013-05-04 07:33:00,
2013-05-04 03:39:00,44.1,21.3,30.18,ENE,58,0.0,0.0,40,0.00,,---,0.00,VWS V12.07,2013-05-04 07:39:00,
2013-05-04 03:45:00,44.2,21.5,30.18,ENE,58,0.0,0.0,40,0.00,,---,0.00,VWS V12.07,2013-05-04 07:45:00,
2013-05-04 03:51:00,44.2,21.5,30.18,ENE,57,0.0,0.0,40,0.00,,---,0.00,VWS V12.07,2013-05-04 07:51:00,
2013-05-04 03:56:00,44.2,21.5,30.18,ENE,57,0.0,0.0,40,0.00,,---,0.00,VWS V12.07,2013-05-04 07:56:00,
2013-05-04 04:02:00,44.1,21.3,30.18,ENE,57,0.0,0.0,40,0.00,,---,0.00,VWS V12.07,2013-05-04 08:02:00,
2013-05-04 04:08:00,44.1,21.3,30.18,ENE,58,0.0,0.0,40,0.00,,---,0.00,VWS V12.07,2013-05-04 08:08:00,
2013-05-04 04:14:00,43.7,21.0,30.18,ENE,57,0.0,0.0,40,0.00,,---,0.00,VWS V12.07,2013-05-04 08:14:00,
2013-05-04 04:20:00,43.5,21.4,30.18,ENE,57,0.0,0.0,41,0.00,,---,0.00,VWS V12.07,2013-05-04 08:20:00,
2013-05-04 04:26:00,43.5,21.4,30.18,ENE,57,0.0,0.0,41,0.00,,---,0.00,VWS V12.07,2013-05-04 08:26:00,
2013-05-04 04:32:00,43.3,21.2,30.18,ENE,58,0.0,0.0,41,0.00,,---,0.00,VWS V12.07,2013-05-04 08:32:00,
2013-05-04 04:38:00,43.3,21.2,30.18,ENE,57,0.0,0.0,41,0.00,,---,0.00,VWS V12.07,2013-05-04 08:38:00,
2013-05-04 04:44:00,43.3,21.2,30.18,ENE,57,0.0,0.0,41,0.00,,---,0.00,VWS V12.07,2013-05-04 08:44:00,
2013-05-04 04:50:00,43.2,21.1,30.18,ENE,57,0.0,0.0,41,0.00,,---,0.00,VWS V12.07,2013-05-04 08:50:00,
2013-05-04 04:57:00,43.2,21.6,30.18,ENE,57,0.0,0.0,42,0.00,,---,0.00,VWS V12.07,2013-05-04 08:57:00,
2013-05-04 05:05:00,43.3,21.8,30.18,ENE,57,0.0,0.0,42,0.00,,---,0.00,VWS V12.07,2013-05-04 09:05:00,
2013-05-04 05:11:00,43.3,21.8,30.18,ENE,57,0.0,0.0,42,0.00,,---,0.00,VWS V12.07,2013-05-04 09:11:00,
2013-05-04 05:17:00,43.2,21.6,30.18,ENE,57,0.0,0.0,42,0.00,,---,0.00,VWS V12.07,2013-05-04 09:17:00,
2013-05-04 05:23:00,43.2,22.2,30.18,ENE,58,0.0,0.0,43,0.00,,---,0.00,VWS V12.07,2013-05-04 09:23:00,
2013-05-04 05:29:00,43.2,22.2,30.18,ENE,57,0.0,0.0,43,0.00,,---,0.00,VWS V12.07,2013-05-04 09:29:00,
2013-05-04 05:34:00,43.0,22.0,30.18,ENE,57,0.0,0.0,43,0.00,,---,0.00,VWS V12.07,2013-05-04 09:34:00,
2013-05-04 05:40:00,43.0,22.0,30.18,ENE,58,0.0,0.0,43,0.00,,---,0.00,VWS V12.07,2013-05-04 09:40:00,
2013-05-04 05:47:00,42.8,21.9,30.18,ENE,57,0.0,0.0,43,0.00,,---,0.00,VWS V12.07,2013-05-04 09:47:00,
2013-05-04 05:53:00,42.8,21.9,30.18,ENE,57,0.0,0.0,43,0.00,,---,0.00,VWS V12.07,2013-05-04 09:53:00,
2013-05-04 05:59:00,42.8,21.9,30.18,ENE,57,0.0,0.0,43,0.00,,---,0.00,VWS V12.07,2013-05-04 09:59:00,
2013-05-04 06:05:00,42.8,22.4,30.18,ENE,57,0.0,0.0,44,0.00,,---,0.00,VWS V12.07,2013-05-04 10:05:00,
2013-05-04 06:11:00,43.0,22.6,30.18,ENE,58,0.0,0.0,44,0.00,,---,0.00,VWS V12.07,2013-05-04 10:11:00,
2013-05-04 06:17:00,43.3,22.9,30.18,ENE,57,0.0,0.0,44,0.00,,---,0.00,VWS V12.07,2013-05-04 10:17:00,
2013-05-04 06:23:00,43.7,23.2,30.18,ENE,57,0.0,0.0,44,0.00,,---,0.00,VWS V12.07,2013-05-04 10:23:00,
2013-05-04 06:29:00,44.1,23.6,30.18,ENE,57,0.0,0.0,44,0.00,,---,0.00,VWS V12.07,2013-05-04 10:29:00,
2013-05-04 06:35:00,44.6,24.0,30.18,ENE,58,0.0,0.0,44,0.00,,---,0.00,VWS V12.07,2013-05-04 10:35:00,
2013-05-04 06:41:00,45.0,24.4,30.21,ENE,58,0.0,0.0,44,0.00,,---,0.00,VWS V12.07,2013-05-04 10:41:00,
2013-05-04 06:47:00,45.5,24.9,30.21,ENE,58,0.0,0.0,44,0.00,,---,0.00,VWS V12.07,2013-05-04 10:47:00,
2013-05-04 06:53:00,46.0,25.4,30.21,ENE,64,0.0,3.1,44,0.00,,---,0.00,VWS V12.07,2013-05-04 10:53:00,
2013-05-04 06:59:00,46.4,25.1,30.21,ENE,64,3.1,3.1,43,0.00,,---,0.00,VWS V12.07,2013-05-04 10:59:00,
2013-05-04 07:05:00,46.8,25.5,30.21,NE,53,2.7,3.6,43,0.00,,---,0.00,VWS V12.07,2013-05-04 11:05:00,
2013-05-04 07:11:00,47.3,26.0,30.18,NE,53,2.2,3.6,43,0.00,,---,0.00,VWS V12.07,2013-05-04 11:11:00,
2013-05-04 07:17:00,48.2,26.2,30.18,ENE,74,4.0,5.4,42,0.00,,---,0.00,VWS V12.07,2013-05-04 11:17:00,
2013-05-04 07:22:00,48.7,26.1,30.18,ENE,62,3.6,5.4,41,0.00,,---,0.00,VWS V12.07,2013-05-04 11:22:00,
2013-05-04 07:30:00,49.3,26.0,30.21,ENE,78,3.1,4.9,40,0.00,,---,0.00,VWS V12.07,2013-05-04 11:30:00,
2013-05-04 07:36:00,49.8,25.9,30.21,NE,52,5.8,5.8,39,0.00,,---,0.00,VWS V12.07,2013-05-04 11:36:00,
2013-05-04 07:43:00,50.2,25.6,30.18,ENE,61,2.2,5.8,38,0.00,,---,0.00,VWS V12.07,2013-05-04 11:43:00,
2013-05-04 07:48:00,50.4,25.1,30.18,East,83,3.1,4.0,37,0.00,,---,0.00,VWS V12.07,2013-05-04 11:48:00,
2013-05-04 07:54:00,51.1,25.7,30.21,ENE,62,3.6,4.9,37,0.00,,---,0.00,VWS V12.07,2013-05-04 11:54:00,
2013-05-04 08:02:00,52.7,26.5,30.21,ENE,71,3.6,4.9,36,0.00,,---,0.00,VWS V12.07,2013-05-04 12:02:00,
2013-05-04 08:09:00,53.4,25.8,30.21,ENE,59,4.0,4.9,34,0.00,,---,0.00,VWS V12.07,2013-05-04 12:09:00,
2013-05-04 08:17:00,54.0,22.5,30.21,ENE,62,3.1,6.3,29,0.00,,---,0.00,VWS V12.07,2013-05-04 12:17:00,
2013-05-04 08:23:00,54.1,22.6,30.21,ENE,72,3.1,6.3,29,0.00,,---,0.00,VWS V12.07,2013-05-04 12:23:00,
2013-05-04 08:33:00,54.5,22.1,30.21,ENE,62,2.7,3.1,28,0.00,,---,0.00,VWS V12.07,2013-05-04 12:33:00,
2013-05-04 08:40:00,55.2,22.7,30.21,SE,125,3.6,6.3,28,0.00,,---,0.00,VWS V12.07,2013-05-04 12:40:00,
2013-05-04 08:47:00,55.2,22.7,30.21,ENE,59,4.0,6.3,28,0.00,,---,0.00,VWS V12.07,2013-05-04 12:47:00,
2013-05-04 08:53:00,54.7,22.2,30.21,NE,53,5.8,6.3,28,0.00,,---,0.00,VWS V12.07,2013-05-04 12:53:00,
2013-05-04 08:59:00,54.7,23.1,30.21,East,99,3.1,6.3,29,0.00,,---,0.00,VWS V12.07,2013-05-04 12:59:00,
2013-05-04 09:05:00,54.7,23.9,30.21,East,96,2.7,6.3,30,0.00,,---,0.00,VWS V12.07,2013-05-04 13:05:00,
2013-05-04 09:11:00,54.9,24.0,30.21,ESE,115,2.2,6.3,30,0.00,,---,0.00,VWS V12.07,2013-05-04 13:11:00,
2013-05-04 09:19:00,55.0,24.2,30.21,NE,50,3.1,5.4,30,0.00,,---,0.00,VWS V12.07,2013-05-04 13:19:00,
2013-05-04 09:24:00,55.4,24.5,30.21,East,80,0.0,5.8,30,0.00,,---,0.00,VWS V12.07,2013-05-04 13:24:00,
2013-05-04 09:30:00,55.6,24.7,30.21,ENE,77,5.4,5.4,30,0.00,,---,0.00,VWS V12.07,2013-05-04 13:30:00,
2013-05-04 09:37:00,55.8,24.0,30.21,East,90,3.6,9.2,29,0.00,,---,0.00,VWS V12.07,2013-05-04 13:37:00,
2013-05-04 09:43:00,55.8,24.0,30.21,East,86,2.7,9.2,29,0.00,,---,0.00,VWS V12.07,2013-05-04 13:43:00,
2013-05-04 09:48:00,55.6,23.9,30.21,NE,54,4.0,5.8,29,0.00,,---,0.00,VWS V12.07,2013-05-04 13:48:00,
2013-05-04 09:54:00,55.9,23.3,30.21,ENE,77,3.6,6.3,28,0.00,,---,0.00,VWS V12.07,2013-05-04 13:54:00,
2013-05-04 10:01:00,55.9,22.5,30.21,ENE,76,3.6,6.3,27,0.00,,---,0.00,VWS V12.07,2013-05-04 14:01:00,
2013-05-04 10:07:00,55.8,22.3,30.21,ENE,77,4.9,8.7,27,0.00,,---,0.00,VWS V12.07,2013-05-04 14:07:00,
2013-05-04 10:13:00,55.0,21.7,30.21,NE,47,5.8,8.7,27,0.00,,---,0.00,VWS V12.07,2013-05-04 14:13:00,
2013-05-04 10:19:00,54.9,21.5,30.21,ENE,60,4.9,9.6,27,0.00,,---,0.00,VWS V12.07,2013-05-04 14:19:00,
2013-05-04 10:24:00,54.7,21.4,30.21,NE,55,4.9,9.6,27,0.00,,---,0.00,VWS V12.07,2013-05-04 14:24:00,
2013-05-04 10:31:00,54.5,21.2,30.21,ENE,68,4.9,6.3,27,0.00,,---,0.00,VWS V12.07,2013-05-04 14:31:00,
2013-05-04 10:36:00,54.5,21.2,30.21,ESE,105,5.4,7.6,27,0.00,,---,0.00,VWS V12.07,2013-05-04 14:36:00,
2013-05-04 10:44:00,54.0,21.6,30.21,NE,54,6.3,7.6,28,0.00,,---,0.00,VWS V12.07,2013-05-04 14:44:00,
2013-05-04 10:50:00,53.6,20.5,30.21,NE,54,6.3,9.2,27,0.00,,---,0.00,VWS V12.07,2013-05-04 14:50:00,
2013-05-04 10:56:00,53.6,20.5,30.21,ENE,67,4.9,9.2,27,0.00,,---,0.00,VWS V12.07,2013-05-04 14:56:00,
2013-05-04 11:02:00,54.1,20.9,30.21,East,90,4.0,6.7,27,0.00,,---,0.00,VWS V12.07,2013-05-04 15:02:00,
2013-05-04 11:08:00,54.3,21.1,30.21,ENE,66,5.4,6.7,27,0.00,,---,0.00,VWS V12.07,2013-05-04 15:08:00,
2013-05-04 11:14:00,54.5,21.2,30.21,NE,56,3.6,6.7,27,0.00,,---,0.00,VWS V12.07,2013-05-04 15:14:00,
2013-05-04 11:20:00,54.9,21.5,30.21,NE,43,4.9,8.3,27,0.00,,---,0.00,VWS V12.07,2013-05-04 15:20:00,
2013-05-04 11:25:00,54.5,21.2,30.21,ENE,65,5.4,8.3,27,0.00,,---,0.00,VWS V12.07,2013-05-04 15:25:00,
2013-05-04 11:32:00,54.5,20.3,30.21,SE,145,4.0,5.4,26,0.00,,---,0.00,VWS V12.07,2013-05-04 15:32:00,
2013-05-04 11:38:00,54.0,19.9,30.21,ENE,78,6.3,8.3,26,0.00,,---,0.00,VWS V12.07,2013-05-04 15:38:00,
2013-05-04 11:44:00,54.0,19.9,30.21,East,97,3.6,8.3,26,0.00,,---,0.00,VWS V12.07,2013-05-04 15:44:00,
2013-05-04 11:50:00,53.8,20.6,30.21,ENE,59,4.0,6.7,27,0.00,,---,0.00,VWS V12.07,2013-05-04 15:50:00,
2013-05-04 11:56:00,54.3,21.1,30.21,ESE,107,6.3,8.3,27,0.00,,---,0.00,VWS V12.07,2013-05-04 15:56:00,
2013-05-04 12:02:00,55.0,20.8,30.21,East,99,2.2,5.8,26,0.00,,---,0.00,VWS V12.07,2013-05-04 16:02:00,
2013-05-04 12:08:00,55.6,21.3,30.21,ENE,57,7.6,8.3,26,0.00,,---,0.00,VWS V12.07,2013-05-04 16:08:00,
2013-05-04 12:14:00,55.2,21.0,30.21,ESE,120,4.9,10.1,26,0.00,,---,0.00,VWS V12.07,2013-05-04 16:14:00,
2013-05-04 12:21:00,55.6,21.3,30.21,East,80,5.8,8.3,26,0.00,,---,0.00,VWS V12.07,2013-05-04 16:21:00,
2013-05-04 12:27:00,54.7,20.5,30.21,East,85,3.6,8.7,26,0.00,,---,0.00,VWS V12.07,2013-05-04 16:27:00,
2013-05-04 12:34:00,54.5,20.3,30.21,ESE,116,4.5,8.7,26,0.00,,---,0.00,VWS V12.07,2013-05-04 16:34:00,
2013-05-04 12:40:00,54.3,21.1,30.21,East,96,3.1,8.7,27,0.00,,---,0.00,VWS V12.07,2013-05-04 16:40:00,
2013-05-04 12:47:00,55.0,21.7,30.21,East,98,5.4,8.7,27,0.00,,---,0.00,VWS V12.07,2013-05-04 16:47:00,
2013-05-04 12:54:00,55.4,21.1,30.21,ENE,60,4.9,8.7,26,0.00,,---,0.00,VWS V12.07,2013-05-04 16:54:00,
2013-05-04 13:00:00,55.9,21.6,30.21,ENE,70,6.3,6.3,26,0.00,,---,0.00,VWS V12.07,2013-05-04 17:00:00,
2013-05-04 13:07:00,55.6,21.3,30.21,East,85,3.6,8.3,26,0.00,,---,0.00,VWS V12.07,2013-05-04 17:07:00,
2013-05-04 13:14:00,55.9,21.6,30.21,East,90,5.4,8.3,26,0.00,,---,0.00,VWS V12.07,2013-05-04 17:14:00,
2013-05-04 13:19:00,55.8,20.5,30.21,ENE,64,4.0,11.0,25,0.00,,---,0.00,VWS V12.07,2013-05-04 17:19:00,
2013-05-04 13:25:00,55.9,21.6,30.21,ENE,76,3.1,11.0,26,0.00,,---,0.00,VWS V12.07,2013-05-04 17:25:00,
2013-05-04 13:32:00,56.3,21.0,30.21,SE,145,4.0,6.3,25,0.00,,---,0.00,VWS V12.07,2013-05-04 17:32:00,
2013-05-04 13:38:00,57.0,21.6,30.21,ENE,73,4.0,9.6,25,0.00,,---,0.00,VWS V12.07,2013-05-04 17:38:00,
2013-05-04 13:45:00,56.7,21.3,30.21,SE,131,5.8,8.3,25,0.00,,---,0.00,VWS V12.07,2013-05-04 17:45:00,
2013-05-04 13:51:00,56.7,21.3,30.21,NE,39,5.4,8.3,25,0.00,,---,0.00,VWS V12.07,2013-05-04 17:51:00,
2013-05-04 13:58:00,56.3,21.0,30.21,SE,135,3.1,8.3,25,0.00,,---,0.00,VWS V12.07,2013-05-04 17:58:00,
2013-05-04 14:03:00,56.3,21.0,30.21,NE,42,4.0,6.3,25,0.00,,---,0.00,VWS V12.07,2013-05-04 18:03:00,
2013-05-04 14:11:00,56.3,21.0,30.21,ENE,58,5.8,7.6,25,0.00,,---,0.00,VWS V12.07,2013-05-04 18:11:00,
2013-05-04 14:16:00,55.0,20.8,30.21,NE,49,8.1,8.1,26,0.00,,---,0.00,VWS V12.07,2013-05-04 18:16:00,
2013-05-04 14:23:00,54.9,20.6,30.21,NE,40,5.4,10.1,26,0.00,,---,0.00,VWS V12.07,2013-05-04 18:23:00,
2013-05-04 14:29:00,54.9,20.6,30.18,NE,51,3.1,4.9,26,0.00,,---,0.00,VWS V12.07,2013-05-04 18:29:00,
2013-05-04 14:36:00,55.6,20.3,30.18,ENE,62,5.4,8.7,25,0.00,,---,0.00,VWS V12.07,2013-05-04 18:36:00,
2013-05-04 14:41:00,55.6,20.3,30.18,ENE,59,3.6,8.7,25,0.00,,---,0.00,VWS V12.07,2013-05-04 18:41:00,
2013-05-04 14:48:00,55.6,20.3,30.18,NE,52,4.0,5.8,25,0.00,,---,0.00,VWS V12.07,2013-05-04 18:48:00,
2013-05-04 14:53:00,55.9,20.6,30.18,NE,48,3.6,6.3,25,0.00,,---,0.00,VWS V12.07,2013-05-04 18:53:00,
2013-05-04 14:59:00,55.9,20.6,30.18,NNE,33,5.8,5.8,25,0.00,,---,0.00,VWS V12.07,2013-05-04 18:59:00,
2013-05-04 15:06:00,55.8,20.5,30.18,East,85,3.1,6.3,25,0.00,,---,0.00,VWS V12.07,2013-05-04 19:06:00,
2013-05-04 15:11:00,56.3,21.0,30.18,SE,128,5.8,6.3,25,0.00,,---,0.00,VWS V12.07,2013-05-04 19:11:00,
2013-05-04 15:17:00,56.8,21.4,30.18,ENE,61,5.4,5.8,25,0.00,,---,0.00,VWS V12.07,2013-05-04 19:17:00,
2013-05-04 15:23:00,56.8,21.4,30.18,SE,139,4.0,8.1,25,0.00,,---,0.00,VWS V12.07,2013-05-04 19:23:00,
2013-05-04 15:29:00,56.1,20.8,30.18,SE,125,6.3,6.3,25,0.00,,---,0.00,VWS V12.07,2013-05-04 19:29:00,
2013-05-04 15:36:00,56.3,21.0,30.18,ENE,66,4.0,6.3,25,0.00,,---,0.00,VWS V12.07,2013-05-04 19:36:00,
2013-05-04 15:41:00,55.4,20.2,30.18,ENE,67,5.4,8.3,25,0.00,,---,0.00,VWS V12.07,2013-05-04 19:41:00,
2013-05-04 15:47:00,54.7,20.5,30.18,SE,126,3.1,7.6,26,0.00,,---,0.00,VWS V12.07,2013-05-04 19:47:00,
2013-05-04 15:53:00,54.7,20.5,30.18,East,97,2.7,7.6,26,0.00,,---,0.00,VWS V12.07,2013-05-04 19:53:00,
2013-05-04 15:59:00,55.6,20.3,30.18,NE,46,2.7,3.1,25,0.00,,---,0.00,VWS V12.07,2013-05-04 19:59:00,
2013-05-04 16:05:00,54.9,20.6,30.18,East,79,5.8,8.7,26,0.00,,---,0.00,VWS V12.07,2013-05-04 20:05:00,
2013-05-04 16:11:00,54.7,20.5,30.18,ENE,57,3.1,8.7,26,0.00,,---,0.00,VWS V12.07,2013-05-04 20:11:00,
2013-05-04 16:18:00,54.7,20.5,30.18,East,101,3.1,5.8,26,0.00,,---,0.00,VWS V12.07,2013-05-04 20:18:00,
2013-05-04 16:23:00,54.5,20.3,30.18,ENE,61,4.9,7.6,26,0.00,,---,0.00,VWS V12.07,2013-05-04 20:23:00,
2013-05-04 16:29:00,54.3,20.2,30.18,ENE,68,2.7,2.7,26,0.00,,---,0.00,VWS V12.07,2013-05-04 20:29:00,
2013-05-04 16:38:00,54.3,20.2,30.18,ENE,72,6.3,8.1,26,0.00,,---,0.00,VWS V12.07,2013-05-04 20:38:00,
2013-05-04 16:43:00,53.6,19.6,30.18,ENE,57,2.7,8.1,26,0.00,,---,0.00,VWS V12.07,2013-05-04 20:43:00,
2013-05-04 16:49:00,53.8,19.7,30.18,ENE,62,8.1,8.3,26,0.00,,---,0.00,VWS V12.07,2013-05-04 20:49:00,
2013-05-04 16:55:00,53.4,19.4,30.15,NE,44,3.6,8.3,26,0.00,,---,0.00,VWS V12.07,2013-05-04 20:55:00,
2013-05-04 17:01:00,53.6,19.6,30.15,NE,48,4.0,5.4,26,0.00,,---,0.00,VWS V12.07,2013-05-04 21:01:00,
2013-05-04 17:07:00,53.4,19.4,30.15,NE,41,3.6,5.8,26,0.00,,---,0.00,VWS V12.07,2013-05-04 21:07:00,
2013-05-04 17:13:00,53.1,19.1,30.15,ESE,105,0.0,6.3,26,0.00,,---,0.00,VWS V12.07,2013-05-04 21:13:00,
2013-05-04 17:19:00,52.9,19.0,30.15,East,80,4.0,7.2,26,0.00,,---,0.00,VWS V12.07,2013-05-04 21:19:00,
2013-05-04 17:25:00,53.1,19.1,30.18,South,188,2.7,7.2,26,0.00,,---,0.00,VWS V12.07,2013-05-04 21:25:00,
2013-05-04 17:31:00,52.9,19.0,30.18,WSW,255,3.1,8.1,26,0.00,,---,0.00,VWS V12.07,2013-05-04 21:31:00,
2013-05-04 17:37:00,52.3,18.5,30.18,SSE,163,3.6,8.1,26,0.00,,---,0.00,VWS V12.07,2013-05-04 21:37:00,
2013-05-04 17:43:00,52.0,18.2,30.15,SE,130,5.8,8.7,26,0.00,,---,0.00,VWS V12.07,2013-05-04 21:43:00,
2013-05-04 17:49:00,51.4,18.6,30.15,ENE,68,6.3,6.3,27,0.00,,---,0.00,VWS V12.07,2013-05-04 21:49:00,
2013-05-04 17:55:00,50.7,18.0,30.15,NE,46,5.4,7.6,27,0.00,,---,0.00,VWS V12.07,2013-05-04 21:55:00,
2013-05-04 18:02:00,50.2,17.5,30.15,NE,53,5.4,5.8,27,0.00,,---,0.00,VWS V12.07,2013-05-04 22:02:00,
2013-05-04 18:07:00,50.0,17.4,30.15,ENE,74,3.1,5.8,27,0.00,,---,0.00,VWS V12.07,2013-05-04 22:07:00,
2013-05-04 18:13:00,49.8,18.0,30.15,NE,47,3.6,5.8,28,0.00,,---,0.00,VWS V12.07,2013-05-04 22:13:00,
2013-05-04 18:19:00,49.5,17.7,30.15,NE,37,4.0,7.6,28,0.00,,---,0.00,VWS V12.07,2013-05-04 22:19:00,
2013-05-04 18:25:00,49.3,18.4,30.18,SSE,156,5.4,7.6,29,0.00,,---,0.00,VWS V12.07,2013-05-04 22:25:00,
2013-05-04 18:31:00,49.1,18.2,30.18,SE,144,5.8,8.7,29,0.00,,---,0.00,VWS V12.07,2013-05-04 22:31:00,
2013-05-04 18:37:00,49.1,18.2,30.18,ENE,70,3.1,8.7,29,0.00,,---,0.00,VWS V12.07,2013-05-04 22:37:00,
2013-05-04 18:43:00,48.9,18.9,30.15,ENE,74,3.6,8.7,30,0.00,,---,0.00,VWS V12.07,2013-05-04 22:43:00,
2013-05-04 18:49:00,48.6,18.5,30.15,ENE,57,4.0,4.5,30,0.00,,---,0.00,VWS V12.07,2013-05-04 22:49:00,
2013-05-04 18:55:00,48.4,18.4,30.15,ENE,74,0.0,4.9,30,0.00,,---,0.00,VWS V12.07,2013-05-04 22:55:00,
2013-05-04 19:01:00,48.4,19.2,30.15,ENE,78,3.1,4.0,31,0.00,,---,0.00,VWS V12.07,2013-05-04 23:01:00,
2013-05-04 19:07:00,48.2,19.0,30.15,NE,44,3.1,5.4,31,0.00,,---,0.00,VWS V12.07,2013-05-04 23:07:00,
2013-05-04 19:13:00,47.8,18.7,30.18,ENE,76,2.2,5.4,31,0.00,,---,0.00,VWS V12.07,2013-05-04 23:13:00,
2013-05-04 19:19:00,47.7,18.5,30.18,ENE,59,3.1,6.3,31,0.00,,---,0.00,VWS V12.07,2013-05-04 23:19:00,
2013-05-04 19:25:00,47.5,18.4,30.18,ESE,103,3.1,6.3,31,0.00,,---,0.00,VWS V12.07,2013-05-04 23:25:00,
2013-05-04 19:30:00,47.3,19.0,30.18,ENE,69,3.1,4.9,32,0.00,,---,0.00,VWS V12.07,2013-05-04 23:30:00,
2013-05-04 19:36:00,47.1,18.8,30.18,East,89,3.6,6.3,32,0.00,,---,0.00,VWS V12.07,2013-05-04 23:36:00,
2013-05-04 19:42:00,47.1,18.8,30.18,ESE,113,2.2,6.3,32,0.00,,---,0.00,VWS V12.07,2013-05-04 23:42:00,
2013-05-04 19:48:00,47.1,19.5,30.18,ENE,72,0.0,3.1,33,0.00,,---,0.00,VWS V12.07,2013-05-04 23:48:00,
2013-05-04 19:54:00,46.9,19.4,30.18,NE,46,4.0,4.9,33,0.00,,---,0.00,VWS V12.07,2013-05-04 23:54:00,
2013-05-04 20:00:00,46.8,19.9,30.18,NE,44,2.2,2.2,34,0.00,,---,0.00,VWS V12.07,2013-05-05 00:00:00,
2013-05-04 20:07:00,46.6,19.7,30.18,ESE,107,3.6,4.9,34,0.00,,---,0.00,VWS V12.07,2013-05-05 00:07:00,
2013-05-04 20:13:00,46.8,19.9,30.18,SE,141,3.6,4.9,34,0.00,,---,0.00,VWS V12.07,2013-05-05 00:13:00,
2013-05-04 20:19:00,46.8,20.6,30.18,East,88,0.0,5.8,35,0.00,,---,0.00,VWS V12.07,2013-05-05 00:19:00,
2013-05-04 20:25:00,46.8,20.6,30.18,ENE,63,3.6,5.8,35,0.00,,---,0.00,VWS V12.07,2013-05-05 00:25:00,
2013-05-04 20:31:00,46.6,20.4,30.18,ENE,64,2.7,4.0,35,0.00,,---,0.00,VWS V12.07,2013-05-05 00:31:00,
2013-05-04 20:37:00,46.4,20.9,30.18,ENE,65,3.1,5.4,36,0.00,,---,0.00,VWS V12.07,2013-05-05 00:37:00,
2013-05-04 20:43:00,46.4,21.6,30.18,ENE,74,2.7,5.4,37,0.00,,---,0.00,VWS V12.07,2013-05-05 00:43:00,
2013-05-04 20:49:00,46.4,21.6,30.18,ENE,72,0.0,3.6,37,0.00,,---,0.00,VWS V12.07,2013-05-05 00:49:00,
2013-05-04 20:54:00,46.2,21.4,30.18,ENE,73,2.7,3.6,37,0.00,,---,0.00,VWS V12.07,2013-05-05 00:54:00,
2013-05-04 21:00:00,46.2,21.4,30.18,East,79,2.7,4.0,37,0.00,,---,0.00,VWS V12.07,2013-05-05 01:00:00,
2013-05-04 21:06:00,46.2,21.4,30.18,NE,49,2.2,4.0,37,0.00,,---,0.00,VWS V12.07,2013-05-05 01:06:00,
2013-05-04 21:12:00,46.2,22.0,30.18,ENE,74,0.0,4.0,38,0.00,,---,0.00,VWS V12.07,2013-05-05 01:12:00,
2013-05-04 21:18:00,46.2,22.0,30.18,ENE,78,0.0,4.0,38,0.00,,---,0.00,VWS V12.07,2013-05-05 01:18:00,
2013-05-04 21:24:00,46.2,22.0,30.18,ENE,77,2.2,4.0,38,0.00,,---,0.00,VWS V12.07,2013-05-05 01:24:00,
2013-05-04 21:30:00,46.2,22.0,30.18,NE,52,0.0,0.0,38,0.00,,---,0.00,VWS V12.07,2013-05-05 01:30:00,
2013-05-04 21:36:00,46.0,21.9,30.18,ENE,59,2.2,3.1,38,0.00,,---,0.00,VWS V12.07,2013-05-05 01:36:00,
2013-05-04 21:42:00,46.0,21.9,30.18,ENE,60,0.0,3.1,38,0.00,,---,0.00,VWS V12.07,2013-05-05 01:42:00,
2013-05-04 21:48:00,46.0,21.9,30.18,ENE,63,0.0,3.1,38,0.00,,---,0.00,VWS V12.07,2013-05-05 01:48:00,
2013-05-04 21:54:00,46.0,21.9,30.18,ENE,62,0.0,3.1,38,0.00,,---,0.00,VWS V12.07,2013-05-05 01:54:00,
2013-05-04 22:00:00,46.0,21.9,30.18,ENE,58,3.1,3.1,38,0.00,,---,0.00,VWS V12.07,2013-05-05 02:00:00,
2013-05-04 22:06:00,46.0,21.9,30.18,ENE,58,0.0,3.1,38,0.00,,---,0.00,VWS V12.07,2013-05-05 02:06:00,
2013-05-04 22:12:00,46.0,21.9,30.18,ENE,58,0.0,3.1,38,0.00,,---,0.00,VWS V12.07,2013-05-05 02:12:00,
2013-05-04 22:18:00,45.9,21.7,30.18,ENE,58,0.0,0.0,38,0.00,,---,0.00,VWS V12.07,2013-05-05 02:18:00,
2013-05-04 22:24:00,45.7,21.5,30.18,ENE,59,0.0,0.0,38,0.00,,---,0.00,VWS V12.07,2013-05-05 02:24:00,
2013-05-04 22:30:00,45.5,21.4,30.18,ENE,58,0.0,0.0,38,0.00,,---,0.00,VWS V12.07,2013-05-05 02:30:00,
2013-05-04 22:37:00,45.1,21.1,30.18,ENE,59,0.0,0.0,38,0.00,,---,0.00,VWS V12.07,2013-05-05 02:37:00,
2013-05-04 22:43:00,45.0,20.9,30.18,ENE,59,0.0,0.0,38,0.00,,---,0.00,VWS V12.07,2013-05-05 02:43:00,
2013-05-04 22:50:00,44.8,20.7,30.18,ENE,58,0.0,0.0,38,0.00,,---,0.00,VWS V12.07,2013-05-05 02:50:00,
2013-05-04 22:56:00,44.6,20.6,30.18,ENE,58,0.0,0.0,38,0.00,,---,0.00,VWS V12.07,2013-05-05 02:56:00,
2013-05-04 23:01:00,44.2,20.9,30.18,ENE,58,0.0,0.0,39,0.00,,---,0.00,VWS V12.07,2013-05-05 03:01:00,
2013-05-04 23:07:00,44.2,20.9,30.18,ENE,58,0.0,0.0,39,0.00,,---,0.00,VWS V12.07,2013-05-05 03:07:00,
2013-05-04 23:13:00,44.1,20.7,30.18,ENE,58,0.0,0.0,39,0.00,,---,0.00,VWS V12.07,2013-05-05 03:13:00,
2013-05-04 23:19:00,44.1,20.7,30.18,ENE,58,0.0,0.0,39,0.00,,---,0.00,VWS V12.07,2013-05-05 03:19:00,
2013-05-04 23:25:00,44.1,20.7,30.18,ENE,58,0.0,0.0,39,0.00,,---,0.00,VWS V12.07,2013-05-05 03:25:00,
2013-05-04 23:31:00,43.7,20.4,30.18,ENE,58,0.0,0.0,39,0.00,,---,0.00,VWS V12.07,2013-05-05 03:31:00,
2013-05-04 23:37:00,43.5,20.8,30.18,ENE,58,0.0,0.0,40,0.00,,---,0.00,VWS V12.07,2013-05-05 03:37:00,
2013-05-04 23:43:00,43.5,20.8,30.18,ENE,58,0.0,0.0,40,0.00,,---,0.00,VWS V12.07,2013-05-05 03:43:00,
2013-05-04 23:49:00,43.5,20.8,30.18,ENE,58,0.0,0.0,40,0.00,,---,0.00,VWS V12.07,2013-05-05 03:49:00,
2013-05-04 23:55:00,43.3,20.6,30.18,ENE,58,0.0,0.0,40,0.00,,---,0.00,VWS V12.07,2013-05-05 03:55:00,